[[{"header":{"parameterUnit":"m.s-1","parameterCategory":1,"la1":30.2991,"la2":30.254,"lo1":-89.0895,"lo2":-89.0444,"dy":0.0017,"dx":0.0017,"nx":28,"ny":28,"refTime":"2024-06-06T03:00:00:Z","depth":0,"parameterNumber":2,"parameterNumberName":"U-component_of_WINDS"},"data":[0,0,0,0,0,0,0,0,0,0,0,0,0,0,0,0,0,0,0,0,0,0,0,0,0,0,0,0,0,0,0,0,0,0,0,0,0,0,0,0,0,0,0,0,0,0,0,0,0,0,0,0,0,0,0,0,0,0,-1.836,-1.836,0,-1.8412,-1.8413,-1.8413,-1.8401,-1.84,-1.8399,-1.8398,-1.8451,-1.8453,-1.8455,0,0,0,0,0,0,0,0,0,0,0,0,0,-1.8248,-1.8251,-1.836,-1.836,-1.8361,-1.8412,-1.8413,-1.8413,-1.8402,-1.84,-1.8399,-1.8398,-1.845,-1.8453,-1.8456,0,0,0,0,0,0,0,0,0,0,0,0,0,-1.8298,-1.8251,-1.836,-1.8361,-1.8362,-1.8412,-1.8413,-1.8413,-1.8402,-1.84,-1.8399,-1.8397,-1.8449,-1.8453,-1.8456,-1.8507,0,0,-1.8467,-1.8468,0,0,0,0,0,0,0,0,-1.8295,-1.8302,-1.836,-1.8361,-1.8362,-1.8399,-1.8393,-1.8445,-1.8402,-1.8387,-1.8398,-1.8397,-1.8435,-1.8439,-1.8452,-1.8509,-1.8512,-1.8467,-1.8469,-1.847,-1.8471,0,0,0,0,0,0,0,-1.8292,-1.83,-1.838,-1.8361,-1.8362,-1.8359,-1.8364,-1.8402,-1.8418,-1.8388,-1.8387,-1.8394,-1.8435,-1.8449,-1.8453,-1.8512,-1.8467,-1.847,-1.8472,-1.8473,-1.8612,-1.8614,0,0,0,0,0,0,-1.8288,-1.8297,-1.8379,-1.8382,-1.8325,-1.8362,-1.8368,-1.8388,-1.8418,-1.8421,-1.8395,-1.8393,-1.8444,-1.8449,-1.8455,-1.8515,-1.847,-1.8474,-1.8476,-1.8611,-1.8612,-1.8614,0,0,0,0,0,0,-1.8286,-1.8295,-1.8377,-1.8339,-1.835,-1.8366,-1.8388,-1.839,-1.8404,-1.8423,-1.8426,-1.8406,-1.8443,-1.845,-1.8494,-1.8517,-1.8475,-1.8478,-1.8609,-1.8611,-1.8613,-1.8636,0,0,0,0,0,0,-1.8283,-1.8295,-1.8314,-1.834,-1.8352,-1.8415,-1.839,-1.8392,-1.841,-1.8408,-1.8435,-1.8437,-1.8442,-1.8489,-1.8497,-1.8521,-1.8481,-1.8607,-1.861,-1.8613,-1.8633,-1.8639,-1.8644,0,0,0,0,0,-1.8279,-1.8319,-1.8316,-1.8325,-1.8377,-1.8416,-1.8423,-1.8428,-1.8412,-1.8432,-1.8444,-1.8437,-1.8513,-1.8493,-1.8503,-1.8528,-1.8605,-1.8609,-1.8612,-1.8631,-1.8638,-1.8644,0,0,0,0,0,0,-1.8296,-1.8322,-1.8319,-1.8369,-1.839,-1.8414,-1.8439,-1.8435,-1.8461,-1.8458,-1.8463,-1.8469,-1.8513,-1.8525,-1.8502,-1.8578,-1.8557,-1.8563,-1.8568,-1.8575,-1.858,-1.8575,-1.8484,0,0,0,0,0,-1.8305,-1.8335,-1.8357,-1.8399,-1.841,-1.8423,-1.844,-1.8442,-1.8465,-1.8473,-1.8489,-1.851,-1.8539,-1.8558,-1.8586,-1.8636,-1.864,-1.8658,-1.8663,-1.8667,-1.8671,-1.8697,-1.8704,-1.8626,-1.8626,-1.8626,0,0,-1.8325,-1.8344,-1.8362,-1.8403,-1.842,-1.845,-1.8431,-1.8464,-1.8486,-1.8478,-1.852,-1.8532,-1.8556,-1.8603,-1.8624,-1.8614,-1.8694,-1.8672,-1.8675,-1.8677,-1.8702,-1.8709,-1.8715,-1.8629,-1.8628,-1.8628,0,0,-1.8377,-1.8395,-1.843,-1.8448,-1.8474,-1.8482,-1.849,-1.8515,-1.8523,-1.8565,-1.8559,-1.8586,-1.8636,-1.8653,-1.8668,-1.8726,-1.8719,-1.8735,-1.8761,-1.8786,-1.8793,-1.8798,-1.8817,-1.8824,-1.8739,-1.8739,-1.8739,0,-1.8398,-1.8444,-1.8449,-1.8483,-1.85,-1.8495,-1.8531,-1.8548,-1.8581,-1.8593,-1.8582,-1.8643,-1.866,-1.8709,-1.8723,-1.8737,-1.8746,-1.8731,-1.8791,-1.8797,-1.8802,-1.882,-1.8827,-1.8741,-1.8741,-1.8741,-1.874,0,-1.8468,-1.85,-1.8526,-1.8558,-1.8579,-1.8613,-1.8623,-1.8643,-1.8644,-1.8653,-1.8695,-1.8714,-1.8745,-1.8758,-1.8758,-1.8807,-1.88,-1.879,-1.8769,-1.8811,-1.8828,-1.8835,-1.8743,-1.8743,-1.8742,-1.8742,0,0,-1.8531,-1.8565,-1.8574,-1.8588,-1.8616,-1.8641,-1.8675,-1.8705,-1.8722,-1.8745,-1.8773,-1.8815,-1.8806,-1.8823,-1.8826,-1.8848,-1.889,-1.8836,-1.8836,-1.8843,-1.8943,-1.8949,-1.8957,-1.8887,-1.8889,-1.889,-1.8941,0,-1.8583,-1.8643,-1.8649,-1.8702,-1.873,-1.8726,-1.8756,-1.8776,-1.8785,-1.8811,-1.8821,-1.885,-1.8837,-1.8847,-1.8869,-1.8881,-1.891,-1.8877,-1.8911,-1.8913,-1.8903,-1.8966,-1.8972,-1.9019,-1.8947,-1.8948,-1.8949,0,-1.8652,-1.8677,-1.8733,-1.8756,-1.8768,-1.8794,-1.8822,-1.8847,-1.8869,-1.8874,-1.8894,-1.8893,-1.8927,-1.8907,-1.8953,-1.893,-1.8945,-1.8953,-1.8955,-1.8956,-1.8932,-1.8967,-1.9035,-1.9041,-1.896,-1.8959,-1.8958,0,-1.8689,-1.8737,-1.8776,-1.8789,-1.8817,-1.8836,-1.8848,-1.8869,-1.8887,-1.8911,-1.8922,-1.895,-1.8965,-1.8986,-1.8993,-1.8978,-1.9039,-1.9019,-1.9043,-1.9042,-1.9054,-1.9053,-1.9122,-1.9067,-1.9067,-1.9067,-1.9067,0,-1.8746,-1.878,-1.8793,-1.8817,-1.8855,-1.8861,-1.8898,-1.891,-1.8929,-1.8954,-1.8953,-1.8977,-1.8985,-1.9011,-1.9017,-1.9053,-1.906,-1.9064,-1.9065,-1.9063,-1.9063,-1.9071,-1.9068,-1.9069,-1.9068,-1.9068,-1.9068,0,-1.8793,-1.8804,-1.8846,-1.887,-1.8876,-1.8903,-1.8922,-1.8945,-1.8954,-1.8987,-1.8995,-1.9009,-1.9039,-1.9048,-1.9084,-1.9088,-1.913,-1.9129,-1.9122,-1.9121,-1.9144,-1.9141,-1.922,-1.923,-1.917,-1.9171,-1.9171,0,-1.8828,-1.8854,-1.888,-1.8897,-1.891,-1.8938,-1.8955,-1.8963,-1.8981,-1.9008,-1.9027,-1.9057,-1.908,-1.9127,-1.9141,-1.9168,-1.9166,-1.9192,-1.917,-1.9167,-1.9164,-1.9161,-1.9163,-1.9195,-1.9196,-1.9197,-1.9197,0,-1.8887,-1.8891,-1.8917,-1.8944,-1.8965,-1.8987,-1.9008,-1.9022,-1.9032,-1.9053,-1.9083,-1.9101,-1.9138,-1.9166,-1.9194,-1.9206,-1.9203,-1.9204,-1.9211,-1.9208,-1.9202,-1.9204,-1.9131,-1.9202,-1.9201,-1.9201,-1.9201,-1.9201,-1.8928,-1.895,-1.8971,-1.8999,-1.9016,-1.9036,-1.9058,-1.907,-1.9095,-1.9125,-1.9128,-1.916,-1.9181,-1.9218,-1.9232,-1.9256,-1.9249,-1.9259,-1.9261,-1.9263,-1.9263,-1.92,-1.9262,-1.9261,-1.9261,-1.9261,-1.9261,0,-1.8985,-1.8999,-1.9025,-1.9054,-1.9076,-1.9072,-1.9095,-1.9113,-1.9141,-1.9161,-1.9185,-1.9218,-1.9246,-1.9262,-1.9289,-1.9306,-1.9305,-1.9313,-1.931,-1.9313,-1.927,-1.926,-1.9313,-1.9313,-1.9313,-1.9313,-1.9313,-1.9313,-1.9018,-1.9054,-1.9061,-1.9105,-1.9118,-1.915,-1.9163,-1.9181,-1.9196,-1.9234,-1.9257,-1.9267,-1.9285,-1.9314,-1.9339,-1.9343,-1.9352,-1.936,-1.9363,-1.9322,-1.9316,-1.9311,-1.9302,-1.9362,-1.9362,-1.9403,-1.9404,-1.9404]},{"header":{"parameterUnit":"m.s-1","parameterCategory":1,"la1":30.2991,"la2":30.254,"lo1":-89.0895,"lo2":-89.0444,"dy":0.0017,"dx":0.0017,"nx":28,"ny":28,"refTime":"2024-06-06T03:00:00:Z","depth":0,"parameterNumber":3,"parameterNumberName":"V-component_of_WINDS"},"data":[0,0,0,0,0,0,0,0,0,0,0,0,0,0,0,0,0,0,0,0,0,0,0,0,0,0,0,0,0,0,0,0,0,0,0,0,0,0,0,0,0,0,0,0,0,0,0,0,0,0,0,0,0,0,0,0,0,0,1.1614,1.1614,0,1.1638,1.1638,1.1638,1.1663,1.1664,1.1664,1.1664,1.1689,1.1689,1.1689,0,0,0,0,0,0,0,0,0,0,0,0,0,1.1589,1.1589,1.1614,1.1614,1.1614,1.1638,1.1638,1.1639,1.1663,1.1664,1.1664,1.1664,1.1689,1.1689,1.1689,0,0,0,0,0,0,0,0,0,0,0,0,0,1.1605,1.1589,1.1614,1.163,1.1631,1.1638,1.1638,1.1639,1.1663,1.1664,1.1664,1.1665,1.1688,1.1689,1.1689,1.1682,0,0,1.1691,1.1691,0,0,0,0,0,0,0,0,1.1604,1.1606,1.1627,1.1628,1.163,1.1648,1.1638,1.1653,1.1663,1.1651,1.1664,1.1665,1.1675,1.1676,1.168,1.1683,1.1684,1.1691,1.1691,1.1692,1.1692,0,0,0,0,0,0,0,1.1603,1.1605,1.1623,1.1627,1.1629,1.1635,1.1638,1.1641,1.166,1.1652,1.1654,1.1657,1.1676,1.1679,1.1681,1.1685,1.1691,1.1691,1.1692,1.1692,1.1684,1.1683,0,0,0,0,0,0,1.1599,1.1604,1.1623,1.1624,1.1618,1.1635,1.1639,1.1642,1.166,1.1663,1.1656,1.1658,1.1678,1.168,1.1682,1.1674,1.1692,1.1692,1.1692,1.1684,1.1683,1.1683,0,0,0,0,0,0,1.1599,1.1601,1.1622,1.1614,1.1618,1.1635,1.1639,1.1642,1.1646,1.1663,1.1666,1.1656,1.1679,1.1681,1.1682,1.1675,1.1692,1.1693,1.1685,1.1684,1.1683,1.1659,0,0,0,0,0,0,1.1598,1.16,1.1598,1.1614,1.1618,1.1622,1.1638,1.1642,1.1646,1.1649,1.1664,1.1667,1.1679,1.1681,1.1682,1.1676,1.1693,1.1685,1.1684,1.1683,1.1661,1.1658,1.1655,0,0,0,0,0,1.1597,1.159,1.1598,1.16,1.1615,1.1621,1.1623,1.1638,1.1646,1.1643,1.1654,1.1666,1.1676,1.1681,1.1683,1.1677,1.1686,1.1685,1.1683,1.1662,1.1658,1.1655,0,0,0,0,0,0,1.1573,1.1593,1.1601,1.16,1.1608,1.1625,1.1623,1.1633,1.164,1.1642,1.166,1.1663,1.1662,1.1669,1.1675,1.167,1.1683,1.1682,1.1665,1.1662,1.1659,1.1657,1.1693,0,0,0,0,0,1.1567,1.157,1.1588,1.1585,1.1589,1.1605,1.1608,1.1618,1.1628,1.1632,1.1643,1.1652,1.1657,1.166,1.1666,1.1662,1.1665,1.1659,1.1656,1.1654,1.1652,1.1651,1.1648,1.1679,1.1679,1.1679,0,0,1.1556,1.1567,1.1568,1.158,1.1588,1.1591,1.1608,1.161,1.1612,1.1632,1.1634,1.1642,1.1654,1.1652,1.1652,1.1659,1.1645,1.1652,1.165,1.165,1.1649,1.1646,1.1643,1.1678,1.1678,1.1678,0,0,1.1536,1.1545,1.1543,1.1551,1.1563,1.1574,1.1574,1.1589,1.1595,1.1597,1.1612,1.1615,1.1624,1.1631,1.1636,1.1619,1.163,1.162,1.1606,1.1604,1.1601,1.1599,1.1593,1.159,1.1619,1.1619,1.1619,0,1.152,1.1525,1.1541,1.1543,1.1547,1.1566,1.1564,1.1571,1.1584,1.1587,1.1594,1.1605,1.1614,1.1614,1.161,1.1613,1.1613,1.1618,1.16,1.1599,1.1597,1.1591,1.1588,1.1618,1.1618,1.1618,1.1618,0,1.1505,1.1508,1.1505,1.1518,1.1522,1.1522,1.1538,1.154,1.155,1.156,1.1562,1.1573,1.1581,1.1582,1.1592,1.1584,1.1587,1.1597,1.161,1.1592,1.1587,1.1585,1.1616,1.1617,1.1617,1.1617,0,0,1.1471,1.1492,1.1491,1.1496,1.1511,1.1513,1.1514,1.1522,1.1524,1.1532,1.1533,1.154,1.1549,1.1554,1.1565,1.1563,1.1549,1.1574,1.1574,1.1568,1.154,1.1532,1.1529,1.1557,1.1556,1.1556,1.1539,0,1.1454,1.1456,1.147,1.1468,1.1471,1.1488,1.1489,1.1498,1.1507,1.1511,1.1521,1.1525,1.1537,1.1541,1.154,1.1551,1.1543,1.1552,1.1557,1.1557,1.1553,1.1527,1.1518,1.1502,1.1537,1.1537,1.1536,0,1.1434,1.1441,1.1439,1.1453,1.1455,1.1455,1.1464,1.1467,1.1477,1.1484,1.149,1.1503,1.1504,1.1516,1.1518,1.1524,1.1527,1.1532,1.1532,1.1532,1.1545,1.1526,1.1497,1.1494,1.1533,1.1534,1.1534,0,1.1409,1.1418,1.1418,1.1422,1.1439,1.1439,1.1446,1.1457,1.146,1.1468,1.147,1.1477,1.1481,1.1487,1.1501,1.1508,1.1501,1.1514,1.1506,1.1506,1.1504,1.1504,1.1474,1.1506,1.1506,1.1506,1.1506,0,1.1388,1.1386,1.1407,1.1407,1.1405,1.1421,1.1419,1.1428,1.1437,1.1439,1.1455,1.1456,1.1474,1.1478,1.1489,1.1488,1.149,1.1496,1.1499,1.1494,1.1493,1.1496,1.1497,1.1506,1.1506,1.1506,1.1506,0,1.1359,1.1373,1.1374,1.139,1.1394,1.1392,1.1405,1.1406,1.1416,1.1418,1.1419,1.1436,1.144,1.1455,1.1463,1.1471,1.1467,1.1473,1.1463,1.1465,1.1456,1.1457,1.1427,1.1424,1.1458,1.1458,1.1458,0,1.1345,1.1344,1.1359,1.1361,1.1368,1.1371,1.1375,1.1391,1.1394,1.1406,1.1405,1.1411,1.1417,1.1423,1.1436,1.1442,1.1448,1.1437,1.1449,1.1445,1.1447,1.1447,1.1447,1.1434,1.1434,1.1434,1.1433,0,1.1318,1.1325,1.133,1.1337,1.1341,1.1347,1.1355,1.1355,1.1373,1.1376,1.1381,1.1386,1.1394,1.14,1.1408,1.1416,1.1427,1.143,1.1428,1.1423,1.1418,1.142,1.1456,1.143,1.143,1.1431,1.1431,1.1431,1.1296,1.1295,1.1306,1.1311,1.1318,1.1324,1.1325,1.1336,1.134,1.1348,1.1357,1.1361,1.1371,1.1384,1.139,1.1393,1.14,1.1398,1.1397,1.1396,1.1394,1.1417,1.1395,1.1395,1.1395,1.1395,1.1396,0,1.1269,1.1277,1.1281,1.129,1.1294,1.1305,1.1314,1.1316,1.1319,1.1327,1.1333,1.1338,1.1344,1.1356,1.1363,1.1363,1.1369,1.1364,1.1364,1.1366,1.1388,1.1388,1.136,1.136,1.136,1.136,1.136,1.136,1.1256,1.1255,1.1263,1.1266,1.1274,1.1278,1.1282,1.1288,1.1295,1.13,1.1304,1.1313,1.1323,1.133,1.1336,1.1339,1.1341,1.1335,1.134,1.1361,1.1364,1.1367,1.1368,1.1335,1.1335,1.1317,1.1317,1.1317]}]]